Regional Weather Roundup
Issued by NWS

Home | Current Version | Previous Version | Text Only | Print | Product List | Glossary Off
Versions: 1 2 3 4 5 6 7 8 9 10 11 12 13 14 15 16 17 18 19 20 21 22 23 24 25 26 27 28 29 30 31 32 33 34 35 36 37 38 39 40 41 42 43 44 45 46 47 48 49 50

000
ASUS43 KBIS 200202
RWRND

NORTH DAKOTA REGIONAL WEATHER ROUNDUP
NATIONAL WEATHER SERVICE BISMARCK ND
900 PM CDT TUE SEP 19 2017

NOTE: "FAIR" INDICATES FEW OR NO CLOUDS BELOW 12,000 FEET WITH NO
SIGNIFICANT WEATHER AND/OR OBSTRUCTIONS TO VISIBILITY.


NDZ001>003-009>011-017-200300-
NORTHWEST NORTH DAKOTA

CITY           SKY/WX    TMP DP  RH WIND       PRES   REMARKS
WILLISTON      LGT RAIN  55  43  63 W12       29.57R
MINOT          CLOUDY    58  53  84 W12       29.48S
MINOT AFB      CLOUDY    57  53  87 W12       29.46S
$$

NDZ018>021-031>035-040>046-200300-
SOUTHWEST NORTH DAKOTA

CITY           SKY/WX    TMP DP  RH WIND       PRES   REMARKS
BISMARCK       LGT RAIN  58  34  40 W13G24    29.55R
DICKINSON      CLOUDY    49  47  93 W12       29.61R
GARRISON         N/A     54  54 100 W12       29.53S
HETTINGER ARPT CLOUDY    49  45  86 W12       29.67R
$$

NDZ004>008-012>016-024-026-027-054-200300-
NORTHEAST NORTH DAKOTA

CITY           SKY/WX    TMP DP  RH WIND       PRES   REMARKS
GRAND FORKS    TSTM      67  65  93 E33G39    29.41F
GRND FRKS AFB  PTCLDY    67  64  92 SE18G37   29.40R
DEVILS LAKE    LGT RAIN  61  58  90 W14G24    29.45R
$$

NDZ022-023-025-028>030-036>039-047>053-200300-
SOUTHEAST NORTH DAKOTA

CITY           SKY/WX    TMP DP  RH WIND       PRES   REMARKS
FARGO          CLOUDY    66  64  93 N7        29.41F
JAMESTOWN      LGT RAIN  63  62  97 SE10      29.45R
$$





USA.gov is the U.S. government's official web portal to all federal, state and local government web resources and services.